コワルスキー彗星

384P/Kowalski (2019)

English version
Home page
Updated on August 15, 2020

---------------------------------------------------------------------

・ プロフィール

符号 384P/2019 O1
検出日 2019年7月27日
検出光度 20.0等
検出者 Hidetaka Sato (Tokyo, Japan)

・ 写真集

・ 軌道要素

Epoch 2019 Oct. 4.0 TT = JDT 2458760.5                                          
T 2019 Oct. 11.41149 TT                                 Bell                    
q   1.1163599            (2000.0)            P               Q                  
n   0.19936172     Peri.   37.64385     +0.84867481     -0.52876174             
a   2.9020721      Node   354.23469     +0.44925471     +0.73335023             
e   0.6153232      Incl.    7.28121     +0.27914381     +0.42732712             
P   4.94                                                                        
From 534 observations 2014 Oct. 18-2020 Jan. 20, mean residual 0".5.            

・ 星図

・ 光度変化

        m1 = 19.0 + 5 logΔ + 10.0 log r(t - 30)

---------------------------------------------------------------------

軌道要素はM.P.E.C. 2020-C98に掲載されたものです。
星図はステラナビゲータ Ver.10 (アストロアーツ) で作成したものです。
光度グラフはComet for Windowsで作成したものです。

---------------------------------------------------------------------

Copyright(C) Seiichi Yoshida (comet@aerith.net). All rights reserved.